Weather History for Wichita, KS

Change the Weather History Date:

Thursday, May 23, 2013

  Actual Average Record
Temperature  
Mean Temperature 65 °F 68 °F  
Max Temperature 73 °F 79 °F 100 °F (1996)
Min Temperature 57 °F 58 °F 40 °F (1917)
Degree Days  
Heating Degree Days 0 2  
Month to date heating degree days 116 72  
Since 1 July heating degree days 4474 4580  
Cooling Degree Days 0 5  
Month to date cooling degree days 52 65  
Year to date cooling degree days 68 91  
Growing Degree Days 15 (Base 50)    
Moisture  
Dew Point 54 °F    
Average Humidity 67    
Maximum Humidity 80    
Minimum Humidity 53    
Precipitation  
Precipitation 0.00 in 0.15 in 1.88 in (1954)
Month to date precipitation 3.32 3.28  
Year to date precipitation 11.92 10.57  
Snow  
Snow 0.00 in 0.00 in 0.00 in (2007)
Month to date snowfall T 0.0  
Since 1 July snowfall 30.0 14.9  
Snow Depth 0.00 in    
Sea Level Pressure  
Sea Level Pressure 30.07 in    
Wind  
Wind Speed 10 mph (ENE)    
Max Wind Speed 20 mph    
Max Gust Speed 24 mph    
Visibility 10 miles    
Events      
T = Trace of Precipitation, MM = Missing Value Source: NWS Daily Summary

Daily Weather History Graph

Daily Weather History Graph

Search for Another Location

Airport:

Trip Planner

Search our weather history database for the weather conditions in past years. The results will help you decide how hot, cold, wet, or windy it might be!

Date:

Astronomy

May. 23, 2013 Rise Set
Actual Time 6:14 AM CDT 8:39 PM CDT
Civil Twilight 5:44 AM CDT 9:09 PM CDT
Nautical Twilight 5:07 AM CDT 9:46 PM CDT
Astronomical Twilight 4:26 AM CDT 10:27 PM CDT
Moon 7:14 PM CDT (5/23) 4:58 AM CDT (5/23)
Length of Visible Light 15h 25m
Length of Day
14h 25m
Waxing Gibbous, 97% of the Moon is Illuminated
May 23
Waxing Gibbous
May 24
Full
May 31
Last Quarter
Jun 8
New
Jun 16
First Quarter

Hourly Weather History & Observations

Time (CDT) Temp. Dew Point Humidity Pressure Visibility Wind Dir Wind Speed Gust Speed Precip Events Conditions
12:53 AM 62.1 °F 54.0 °F 75% 29.94 in 10.0 mi ENE 4.6 mph - N/A   Partly Cloudy
1:53 AM 62.1 °F 54.0 °F 75% 29.96 in 10.0 mi NE 5.8 mph - N/A   Scattered Clouds
2:53 AM 62.1 °F 55.0 °F 78% 29.97 in 10.0 mi NNE 8.1 mph - N/A   Scattered Clouds
3:53 AM 59.0 °F 52.0 °F 78% 30.00 in 10.0 mi NE 10.4 mph - N/A   Scattered Clouds
4:53 AM 57.9 °F 51.1 °F 78% 30.02 in 10.0 mi NNE 11.5 mph - N/A   Scattered Clouds
5:53 AM 57.9 °F 50.0 °F 75% 30.04 in 10.0 mi NNE 11.5 mph - N/A   Mostly Cloudy
6:53 AM 57.9 °F 51.1 °F 78% 30.07 in 10.0 mi NNE 9.2 mph - N/A   Mostly Cloudy
7:53 AM 59.0 °F 50.0 °F 72% 30.05 in 10.0 mi NNE 16.1 mph - N/A   Scattered Clouds
8:53 AM 61.0 °F 51.1 °F 70% 30.09 in 10.0 mi NNE 15.0 mph - N/A   Mostly Cloudy
9:53 AM 61.0 °F 51.1 °F 70% 30.13 in 10.0 mi NE 10.4 mph - N/A   Mostly Cloudy
10:53 AM 60.1 °F 51.1 °F 72% 30.13 in 10.0 mi NE 9.2 mph - N/A   Mostly Cloudy
11:53 AM 61.0 °F 51.1 °F 70% 30.11 in 10.0 mi NE 12.7 mph - N/A   Mostly Cloudy
12:53 PM 64.9 °F 53.1 °F 65% 30.14 in 10.0 mi ENE 8.1 mph - N/A   Mostly Cloudy
1:53 PM 69.1 °F 54.0 °F 58% 30.12 in 10.0 mi ENE 8.1 mph - N/A   Mostly Cloudy
2:53 PM 73.0 °F 55.9 °F 55% 30.10 in 10.0 mi ENE 8.1 mph - N/A   Mostly Cloudy
3:53 PM 72.0 °F 55.9 °F 57% 30.12 in 10.0 mi East 6.9 mph - N/A   Mostly Cloudy
4:53 PM 71.1 °F 55.9 °F 59% 30.11 in 10.0 mi SSE 5.8 mph - N/A   Mostly Cloudy
5:53 PM 73.0 °F 55.9 °F 55% 30.07 in 10.0 mi NE 13.8 mph - N/A   Overcast
6:53 PM 72.0 °F 57.0 °F 59% 30.07 in 10.0 mi NE 11.5 mph - N/A   Mostly Cloudy
7:53 PM 69.1 °F 55.9 °F 63% 30.08 in 10.0 mi East 9.2 mph - N/A   Scattered Clouds
8:53 PM 68.0 °F 55.9 °F 65% 30.09 in 10.0 mi East 8.1 mph - N/A   Mostly Cloudy
9:53 PM 66.9 °F 55.9 °F 68% 30.09 in 10.0 mi East 9.2 mph - N/A   Mostly Cloudy
10:53 PM 66.9 °F 55.9 °F 68% 30.15 in 10.0 mi East 8.1 mph - N/A   Mostly Cloudy
11:53 PM 64.0 °F 55.9 °F 75% 30.15 in 10.0 mi East 12.7 mph - N/A   Scattered Clouds